Ambrogiana, Italy

7:26 AM CET on December 14, 2017 (GMT +0100)
Ambrogiana

Weather History for 16170 - November, 2013

Change the Weather History Date:

Friday, November 22, 2013

  Actual Average Record
Temperature  
Mean Temperature 48 °F -  
Max Temperature 55 °F 53 °F - ()
Min Temperature 41 °F 38 °F - ()
Degree Days  
Heating Degree Days 17    
Moisture  
Dew Point 42 °F    
Average Humidity 78    
Maximum Humidity 93    
Minimum Humidity 62    
Precipitation  
Precipitation 0.00 in 0.13 in - ()
Sea Level Pressure  
Sea Level Pressure 29.49 in    
Wind  
Wind Speed 6 mph ()    
Max Wind Speed 14 mph    
Max Gust Speed -    
Visibility 6.2 miles    
Events Rain    
T = Trace of Precipitation, MM = Missing Value Source: Averaged Metar Reports

Daily Weather History Graph

Daily Weather History Graph

Search for Another Location

Airport or City:

Trip Planner

Search our weather history database for the weather conditions in past years. The results will help you decide how hot, cold, wet, or windy it might be!

Date:

Astronomy

Nov. 22, 2013 Rise Set
Actual Time 7:18 AM CET 4:43 PM CET
Civil Twilight 6:46 AM CET 5:15 PM CET
Nautical Twilight 6:11 AM CET 5:50 PM CET
Astronomical Twilight 5:37 AM CET 6:24 PM CET
Moon 9:02 PM CET (11/22) 10:50 AM CET (11/22)
Length of Visible Light 10h 28m
Length of Day
9h 25m
Waning Gibbous, 80% of the Moon is Illuminated
Nov 22
Waning Gibbous
Nov 25
Last Quarter
Dec 3
New
Dec 9
First Quarter
Dec 17
Full

Hourly Weather History & Observations

Time (CET) Temp. Windchill Dew Point Humidity Pressure Visibility Wind Dir Wind Speed Gust Speed Precip Events Conditions
12:20 AM 46.4 °F 42.9 °F 42.8 °F 87% 29.50 in 6.2 mi Variable 6.9 mph - N/A   Mostly Cloudy
12:50 AM 44.6 °F 41.4 °F 42.8 °F 93% 29.50 in 6.2 mi NW 5.8 mph - N/A Rain Light Rain
1:20 AM 44.6 °F 40.7 °F 42.8 °F 93% 29.47 in 6.2 mi Variable 6.9 mph - N/A Rain Light Rain
1:50 AM 46.4 °F 41.9 °F 42.8 °F 87% 29.47 in 6.2 mi East 9.2 mph - N/A   Mostly Cloudy
2:20 AM 46.4 °F 43.5 °F 42.8 °F 87% 29.50 in 6.2 mi SE 5.8 mph - N/A   Mostly Cloudy
2:50 AM 44.6 °F 40.7 °F 41.0 °F 87% 29.50 in 6.2 mi East 6.9 mph - N/A   Mostly Cloudy
3:20 AM 44.6 °F 39.7 °F 41.0 °F 87% 29.47 in 6.2 mi East 9.2 mph - N/A   Mostly Cloudy
3:50 AM 44.6 °F 41.4 °F 41.0 °F 87% 29.47 in 6.2 mi East 5.8 mph - N/A   Mostly Cloudy
4:20 AM 44.6 °F 41.4 °F 41.0 °F 87% 29.47 in 6.2 mi East 5.8 mph - N/A   Mostly Cloudy
4:50 AM 42.8 °F 41.1 °F 39.2 °F 87% 29.47 in 6.2 mi SE 3.5 mph - N/A   Partly Cloudy
5:20 AM 42.8 °F 41.1 °F 39.2 °F 87% 29.47 in 6.2 mi East 3.5 mph - N/A   Partly Cloudy
5:50 AM 42.8 °F 41.1 °F 39.2 °F 87% 29.50 in 6.2 mi West 3.5 mph - N/A   Partly Cloudy
6:20 AM 41.0 °F - 39.2 °F 93% 29.50 in 6.2 mi Variable 2.3 mph - N/A   Partly Cloudy
6:50 AM 42.8 °F 41.1 °F 41.0 °F 93% 29.50 in - WSW 3.5 mph - N/A   Clear
7:20 AM 42.8 °F - 41.0 °F 93% 29.53 in - Variable 2.3 mph - N/A   Clear
7:50 AM 41.0 °F - 39.2 °F 93% 29.53 in - Calm Calm - N/A   Clear
8:20 AM 42.8 °F 41.1 °F 41.0 °F 93% 29.53 in - WNW 3.5 mph - N/A   Clear
8:50 AM 44.6 °F - 42.8 °F 93% 29.53 in - Variable 2.3 mph - N/A   Clear
9:20 AM 46.4 °F - 42.8 °F 87% 29.53 in 6.2 mi Variable 2.3 mph - N/A   Partly Cloudy
9:50 AM 46.4 °F 44.3 °F 42.8 °F 87% 29.53 in 6.2 mi SW 4.6 mph - N/A   Scattered Clouds
10:20 AM 48.2 °F - 44.6 °F 87% 29.53 in 6.2 mi West 4.6 mph - N/A   Scattered Clouds
10:50 AM 48.2 °F - 44.6 °F 87% 29.53 in 6.2 mi Variable 2.3 mph - N/A   Scattered Clouds
11:20 AM 50.0 °F - 44.6 °F 82% 29.50 in 6.2 mi WNW 3.5 mph - N/A   Scattered Clouds
11:50 AM 51.8 °F - 44.6 °F 76% 29.53 in 6.2 mi NE 5.8 mph - N/A   Scattered Clouds
12:20 PM 53.6 °F - 44.6 °F 72% 29.50 in 6.2 mi ENE 6.9 mph - N/A   Scattered Clouds
12:50 PM 55.4 °F - 46.4 °F 72% 29.50 in 6.2 mi East 4.6 mph - N/A   Scattered Clouds
1:20 PM 55.4 °F - 44.6 °F 67% 29.50 in 6.2 mi ENE 5.8 mph - N/A   Partly Cloudy
1:50 PM 55.4 °F - 44.6 °F 67% 29.47 in 6.2 mi ENE 4.6 mph - N/A   Partly Cloudy
2:20 PM 55.4 °F - 44.6 °F 67% 29.47 in 6.2 mi NE 8.1 mph - N/A   Partly Cloudy
2:50 PM 53.6 °F - 42.8 °F 67% 29.47 in 6.2 mi ENE 8.1 mph - N/A   Partly Cloudy
3:20 PM 53.6 °F - 44.6 °F 72% 29.47 in 6.2 mi NE 5.8 mph - N/A   Scattered Clouds
3:50 PM 53.6 °F - 42.8 °F 67% 29.47 in 6.2 mi ENE 5.8 mph - N/A   Scattered Clouds
4:20 PM 51.8 °F - 42.8 °F 71% 29.47 in 6.2 mi ENE 5.8 mph - N/A   Scattered Clouds
4:50 PM 53.6 °F - 41.0 °F 62% 29.47 in 6.2 mi ENE 13.8 mph - N/A   Scattered Clouds
5:20 PM 53.6 °F - 41.0 °F 62% 29.47 in 6.2 mi NE 11.5 mph - N/A   Overcast
5:50 PM 51.8 °F - 41.0 °F 67% 29.47 in 6.2 mi East 6.9 mph - N/A   Overcast
6:20 PM 51.8 °F - 41.0 °F 67% 29.47 in 6.2 mi NNE 13.8 mph - N/A   Mostly Cloudy
6:50 PM 51.8 °F - 42.8 °F 71% 29.47 in 6.2 mi NE 12.7 mph - N/A   Mostly Cloudy
7:20 PM 51.8 °F - 42.8 °F 71% 29.47 in 6.2 mi NNE 13.8 mph - N/A   Mostly Cloudy
7:50 PM 51.8 °F - 41.0 °F 67% 29.47 in 6.2 mi NE 9.2 mph - N/A   Mostly Cloudy
8:20 PM 51.8 °F - 41.0 °F 67% 29.47 in 6.2 mi East 5.8 mph - N/A   Mostly Cloudy
8:50 PM 51.8 °F - 41.0 °F 67% 29.47 in 6.2 mi NE 8.1 mph - N/A   Mostly Cloudy
9:20 PM 51.8 °F - 41.0 °F 67% 29.47 in 6.2 mi Variable 3.5 mph - N/A   Mostly Cloudy
9:50 PM 51.8 °F - 41.0 °F 67% 29.47 in 6.2 mi ESE 3.5 mph - N/A   Mostly Cloudy
10:20 PM 51.8 °F - 41.0 °F 67% 29.47 in 6.2 mi NNE 5.8 mph - N/A   Light Drizzle
10:50 PM 50.0 °F - 41.0 °F 71% 29.47 in 6.2 mi NNE 8.1 mph - N/A Rain Light Rain
11:20 PM 50.0 °F - 41.0 °F 71% 29.44 in 6.2 mi Variable 3.5 mph - N/A Rain Light Rain